Location: Holyhead Bay
(53.3667°N, 4.6667°W)
Time: 19:54:16
(UTC+00:00)

Okean O Rocket - Pass Details

Date: 24 November 2020
Orbit: 623 x 644 km, 98.2° (Epoch: 17 January)

Event Time Altitude Azimuth Distance (km) Brightness Sun altitude
Rises 17:04:16 0° 149° (SSE) 2,900 4.9 -7.9°
Reaches altitude 10° 17:06:29 10° 144° (SE) 1,999 4.1 -8.2°
Maximum altitude 17:10:42 52° 68° (ENE) 783 1.7 -8.7°
Drops below altitude 10° 17:14:59 10° 353° (N) 2,025 4.1 -9.3°
Sets 17:17:14 0° 349° (NNW) 2,942 4.9 -9.6°
